Location: Mohawk View
(42.7837°N, 73.7885°W)
Time: 16:51:11
(UTC+00:00)

Cosmos 1356 - Pass Details

Date: 17 June 2021
Orbit: 438 x 439 km, 81.1° (Epoch: 02 August)

Event Time Altitude Azimuth Distance (km) Brightness Sun altitude
Exits shadow 05:40:30 40° 64° (ENE) 664 4.4 -23.0°
Drops below altitude 10° 05:43:10 10° 22° (NNE) 1,559 7.2 -22.9°
Sets 05:45:16 0° 17° (NNE) 2,433 8.6 -22.9°
